Location: Pella
(41.4080°N, 92.9160°W)
Time: 07:08:29
(UTC-05:00)

ATLAS 5 CENTAUR R/B - Visible Passes

Search period start: 31 October 2014 00:00
Search period end: 09 November 2014 23:00
Orbit: 354 x 357 km, 35.7° (Epoch: 30 October)

Date Brightness Start Highest point End Pass type
(mag) Time Alt. Az. Time Alt. Az. Time Alt. Az.
07 Nov 3.3 18:22:55 10° S 18:24:14 12° SSE 18:24:21 12° SSE visible
08 Nov 3.2 18:46:11 10° SW 18:47:35 18° SSW 18:47:35 18° SSW visible
09 Nov 3.3 17:34:52 10° SSW 17:36:29 14° SSE 17:38:06 10° SE visible
09 Nov 3.9 19:09:55 10° SW 19:10:31 14° SW 19:10:31 14° SW visible
